Wind_Speed
9 9 9 9 9 9 9 9 9 9 10 10 9 9 9 9 9 9 10 10 9 9 10 10 10 10 11 11 11 12 12 12 12 13 13 14 14 14 15 15 16 16 16
10 11 11 10 10 11 11 11 11 11 11 11 11 11 11 11 11 11 11 11 11 11 11 12 12 12 12 13 13 13 14 14 14 15 15 16 16 16 16 17 17 18 17
12 12 13 12 12 12 13 13 13 13 13 13 13 13 13 13 13 12 12 13 13 13 14 14 14 14 14 14 15 15 16 16 16 17 17 17 17 18 18 19 19 19 19
14 14 15 15 15 15 14 15 15 15 15 15 15 15 15 14 14 14 14 15 15 15 15 16 16 16 16 16 16 17 17 18 19 19 19 19 19 20 20 21 21 21 21
15 16 17 17 17 17 17 17 17 17 17 17 16 16 16 16 16 16 16 16 16 16 17 17 17 18 18 18 18 19 20 20 21 21 21 21 21 21 22 22 22 23 23
17 17 18 19 19 19 19 19 19 19 19 19 19 18 18 18 18 18 18 18 18 18 18 19 19 20 20 20 21 21 22 22 22 22 22 23 23 23 23 23 24 25 25
18 19 20 20 21 21 21 21 20 20 20 20 20 20 20 20 19 19 19 20 20 20 20 21 21 22 22 22 23 23 24 23 23 23 23 24 24 24 25 26 26 27 27
20 21 21 22 22 22 22 22 22 22 22 21 21 21 21 20 21 21 21 21 21 21 22 22 23 23 24 24 25 25 25 25 25 25 25 26 26 26 27 28 28 29 30
22 22 22 23 23 23 23 23 23 23 23 23 22 22 21 21 22 22 22 23 23 23 23 24 24 24 25 25 26 26 26 26 27 27 27 28 29 29 30 30 31 31 32
23 23 23 23 23 23 23 23 24 24 24 24 23 23 23 23 23 24 24 25 25 25 25 26 26 26 26 27 28 28 29 29 29 30 30 31 31 32 32 32 33 34 34
25 24 24 24 23 23 23 24 24 24 24 25 25 25 25 25 25 26 26 26 26 26 26 26 27 27 28 29 30 30 31 31 31 32 32 32 33 33 33 34 35 36 36
24 25 24 24 23 24 24 24 24 25 26 26 27 27 27 26 26 27 28 28 28 28 28 28 29 30 30 31 32 32 32 33 33 33 34 34 34 35 36 36 37 38 38
24 24 24 24 24 24 25 25 26 26 26 27 27 27 28 29 28 28 29 30 30 30 30 31 31 32 32 33 33 33 33 33 34 35 36 36 36 37 37 38 39 39 40
25 25 25 24 24 24 24 25 26 27 27 28 28 28 29 30 30 30 30 31 31 32 32 33 33 34 34 34 34 34 34 34 36 36 37 37 37 38 39 40 40 40 41
26 25 25 25 25 25 25 26 26 26 27 28 29 29 30 31 31 31 31 32 33 33 34 34 35 35 36 36 36 36 36 36 36 37 37 38 38 39 40 40 41 41 41
25 25 25 24 25 25 26 26 26 27 27 28 29 30 31 31 31 32 32 33 34 34 34 35 36 36 37 37 37 37 37 37 38 38 39 39 40 41 41 41 41 41 42
23 23 24 24 25 26 26 26 28 28 29 30 30 31 31 31 31 32 33 34 34 35 35 35 36 37 37 37 37 37 39 40 39 39 40 40 41 41 41 41 42 42 43
22 23 24 24 24 24 25 26 27 28 29 31 31 31 32 32 32 33 34 35 36 36 36 35 37 38 38 38 38 39 39 41 41 41 40 40 41 42 42 43 43 44 44
20 22 23 23 24 25 25 26 28 29 30 31 31 32 32 33 33 34 34 35 35 36 36 36 37 38 38 38 39 39 40 40 41 40 41 41 42 43 44 44 45 46 46
20 21 22 23 24 24 25 26 27 28 29 30 30 30 31 33 33 34 34 34 35 36 36 37 37 37 38 38 39 39 40 40 41 41 42 43 44 44 45 46 46 47 48
19 20 21 23 24 25 26 26 27 28 30 30 30 30 31 32 33 33 34 35 35 37 37 37 37 37 38 39 39 39 40 40 41 43 44 44 45 46 47 47 48 48 49
18 20 22 23 24 26 26 27 29 30 29 30 31 31 32 33 34 33 34 35 36 37 37 38 38 38 38 40 41 41 41 41 42 44 45 46 46 47 48 49 49 49 50
20 21 22 23 25 26 27 28 29 30 30 31 32 32 32 32 33 34 34 35 36 37 37 38 38 39 40 40 42 42 43 43 44 44 45 46 47 48 48 49 49 49 50
19 20 21 23 25 26 27 27 28 29 30 32 32 32 32 32 33 33 33 34 34 35 36 37 38 38 40 41 42 43 44 45 45 45 46 46 47 47 47 48 49 49 50
20 21 22 23 24 25 26 27 28 29 30 31 31 32 32 32 32 32 32 32 33 34 35 36 37 38 40 42 43 44 45 45 46 46 46 46 46 47 47 48 48 49 49
21 22 23 24 24 25 26 27 29 30 30 30 31 32 32 32 31 31 32 32 33 34 35 36 37 39 41 42 43 44 44 44 45 46 45 44 45 45 46 46 47 47 48
Wind_Direction
252 249 245 244 247 248 250 252 255 259 260 261 263 267 272 275 277 278 277 273 269 269 269 269 268 267 268 270 271 272 274 275 276 278 279 279 278 279 278 278 277 277 277
253 250 248 247 248 250 252 255 258 259 260 261 264 267 269 271 273 274 273 273 271 270 270 270 272 271 270 272 272 274 276 276 276 277 278 279 279 279 280 279 278 278 278
252 251 250 250 250 251 254 255 258 260 261 262 265 266 268 269 271 271 270 272 273 273 272 271 273 273 273 273 274 275 276 277 277 278 278 279 279 279 279 279 279 279 278
253 252 252 253 253 254 256 256 257 260 262 264 265 266 267 268 269 269 270 271 273 274 274 274 274 273 273 275 276 276 277 278 280 280 281 280 280 280 279 279 279 279 279
255 254 255 255 255 256 257 257 258 259 262 263 264 266 268 268 268 269 269 271 272 273 274 274 274 274 274 275 276 277 278 279 280 281 281 281 280 280 280 279 279 280 280
258 257 256 256 256 257 258 259 259 260 261 262 264 265 266 266 268 269 269 269 272 274 275 275 275 275 275 276 277 278 280 281 281 280 280 280 281 281 280 280 281 280 280
261 260 260 259 258 258 258 259 260 260 261 262 263 265 265 266 267 269 270 271 273 275 275 276 276 276 276 277 278 279 281 281 281 280 280 280 282 283 283 282 281 280 280
263 262 262 262 261 260 259 259 260 260 260 260 262 263 264 266 267 268 270 272 274 275 275 276 277 276 276 277 278 279 280 280 279 279 280 280 281 281 282 282 282 282 281
264 262 261 262 261 260 260 260 260 261 260 260 261 262 264 266 268 268 270 271 273 274 275 275 276 276 276 277 278 279 280 279 279 280 280 280 280 281 281 281 281 282 282
265 264 261 261 261 259 259 260 261 261 261 260 261 264 265 266 267 268 269 271 273 274 275 275 275 276 277 278 279 279 279 280 280 280 280 281 281 282 282 282 283 283 283
265 263 260 259 259 260 261 261 262 264 262 260 261 263 265 266 267 268 269 272 273 274 274 276 275 276 278 279 280 280 280 280 280 280 281 281 282 283 283 283 283 283 283
265 261 258 257 259 261 262 261 263 265 264 262 263 265 266 266 268 269 270 272 272 273 274 276 276 277 278 279 280 281 281 280 280 280 280 281 282 282 283 283 284 284 283
264 261 258 259 260 263 264 263 265 266 265 264 265 267 267 267 269 270 271 272 273 274 275 276 278 279 279 281 281 281 281 281 282 281 282 282 282 283 284 284 285 285 284
263 262 258 259 258 260 263 265 266 267 266 266 266 267 268 269 270 271 271 272 273 274 276 277 279 280 280 281 282 281 281 281 282 282 282 283 283 284 284 285 285 284 284
263 261 258 257 257 260 263 264 267 267 268 266 265 267 269 270 271 271 272 273 274 275 276 278 279 280 281 282 282 282 281 282 282 282 283 284 285 285 286 285 285 285 284
263 259 256 256 257 259 264 265 266 268 269 269 269 270 271 271 272 272 272 273 274 275 277 278 279 280 281 282 282 282 281 282 283 284 284 284 285 285 286 285 285 284 284
261 258 256 257 257 259 263 264 267 270 271 273 273 273 273 273 272 272 272 273 274 275 276 278 280 280 280 282 282 282 282 283 284 284 285 285 285 285 286 285 285 284 284
260 259 260 259 258 262 264 265 268 271 273 275 276 276 274 274 273 273 273 274 275 275 276 278 280 281 281 281 282 282 283 284 284 284 285 286 285 286 285 285 285 285 285
263 263 264 261 263 266 268 268 270 273 275 277 277 277 276 275 275 274 274 275 275 276 277 278 280 282 282 282 283 283 283 284 285 285 285 286 286 285 285 286 285 285 286
270 270 265 262 268 271 271 270 273 275 277 278 279 279 278 278 277 276 276 277 277 277 278 279 280 282 282 282 283 284 284 284 285 285 286 286 286 286 286 286 286 285 286
271 271 268 268 271 273 273 273 275 277 278 279 281 282 281 279 278 277 276 277 278 278 278 279 280 281 282 283 284 284 284 284 286 287 287 287 287 287 288 287 287 286 286
274 274 274 274 275 275 276 276 277 280 280 280 282 282 282 280 278 277 277 277 278 278 278 279 281 281 282 283 284 284 284 285 285 286 286 287 287 288 288 288 288 287 287
280 280 278 276 276 277 277 279 280 281 282 283 283 282 283 282 279 278 279 278 278 277 278 279 282 283 283 284 285 284 284 284 285 286 287 287 288 288 289 289 288 288 287
283 284 282 280 279 279 280 280 281 283 284 284 284 285 285 285 282 280 280 280 280 279 279 281 282 285 286 287 287 286 286 286 287 287 287 288 289 289 290 290 289 289 288
287 289 287 284 283 283 283 284 283 284 285 285 285 284 285 285 284 282 282 283 283 283 283 284 284 287 289 289 289 289 288 288 289 289 288 288 289 290 290 291 291 290 290
285 289 290 288 286 285 285 286 287 286 286 286 286 285 285 284 283 283 284 286 286 286 286 287 287 288 290 291 291 291 291 290 291 291 290 290 291 291 292 292 292 292 292
Height
5841 5841 5841 5841 5841 5841 5842 5842 5842 5842 5842 5842 5842 5842 5842 5841 5841 5841 5840 5840 5839 5839 5839 5838 5838 5838 5837 5837 5837 5836 5835 5835 5834 5833 5833 5832 5831 5831 5830 5829 5828 5828 5827
5839 5839 5839 5839 5840 5840 5840 5840 5840 5840 5840 5840 5840 5840 5840 5840 5839 5839 5839 5838 5838 5837 5837 5836 5836 5836 5835 5835 5834 5834 5833 5832 5832 5831 5830 5829 5828 5828 5827 5826 5825 5825 5824
5837 5837 5837 5837 5837 5837 5838 5838 5838 5838 5838 5838 5838 5838 5837 5837 5837 5837 5836 5836 5835 5835 5834 5834 5834 5833 5833 5832 5831 5831 5830 5829 5829 5828 5827 5826 5825 5824 5823 5822 5822 5821 5820
5834 5835 5835 5835 5835 5835 5835 5835 5835 5835 5835 5835 5835 5835 5835 5835 5835 5834 5834 5833 5833 5832 5832 5831 5831 5830 5830 5829 5829 5828 5827 5826 5825 5824 5823 5822 5821 5820 5819 5819 5818 5817 5816
5831 5831 5831 5832 5832 5832 5832 5832 5832 5832 5832 5832 5832 5832 5832 5832 5832 5831 5831 5830 5830 5829 5829 5828 5828 5827 5827 5826 5825 5825 5823 5822 5821 5820 5819 5818 5817 5816 5815 5814 5813 5813 5812
5828 5828 5828 5828 5828 5828 5828 5829 5829 5828 5828 5829 5829 5829 5829 5828 5828 5828 5828 5827 5827 5826 5825 5825 5824 5824 5823 5822 5822 5821 5820 5818 5817 5816 5815 5814 5813 5812 5811 5810 5809 5808 5806
5824 5824 5824 5824 5824 5824 5824 5825 5825 5825 5825 5825 5825 5825 5825 5824 5824 5824 5824 5824 5823 5823 5822 5821 5820 5820 5819 5818 5817 5816 5815 5814 5813 5812 5811 5809 5808 5807 5806 5805 5803 5802 5801
5820 5820 5820 5820 5820 5820 5820 5820 5820 5820 5821 5821 5821 5821 5821 5820 5820 5820 5820 5819 5819 5818 5818 5817 5816 5815 5814 5813 5813 5811 5810 5809 5808 5807 5806 5805 5803 5802 5800 5799 5798 5797 5795
5815 5815 5815 5815 5815 5815 5815 5815 5816 5816 5816 5816 5816 5816 5816 5816 5816 5816 5815 5815 5814 5814 5813 5812 5811 5810 5809 5808 5807 5806 5805 5804 5803 5802 5800 5799 5797 5796 5795 5793 5792 5790 5789
5810 5810 5810 5810 5810 5810 5810 5810 5810 5811 5811 5811 5811 5812 5812 5812 5811 5811 5810 5810 5809 5808 5808 5807 5806 5805 5804 5803 5802 5801 5800 5798 5797 5796 5794 5793 5791 5790 5788 5787 5785 5784 5782
5804 5804 5804 5805 5805 5805 5805 5805 5805 5805 5805 5805 5806 5806 5806 5806 5806 5806 5805 5804 5804 5803 5802 5801 5800 5800 5798 5797 5796 5795 5793 5792 5791 5789 5788 5786 5785 5783 5781 5780 5778 5776 5775
5798 5798 5798 5799 5799 5799 5799 5799 5799 5799 5799 5799 5800 5800 5800 5800 5800 5800 5799 5799 5798 5797 5797 5796 5795 5794 5792 5791 5790 5788 5787 5785 5784 5782 5781 5779 5777 5776 5774 5772 5770 5768 5766
5792 5791 5792 5793 5793 5794 5793 5793 5793 5793 5792 5793 5794 5794 5794 5794 5794 5794 5793 5793 5792 5791 5790 5790 5788 5787 5786 5784 5783 5781 5780 5778 5777 5775 5773 5772 5770 5768 5766 5764 5762 5759 5757
5785 5785 5786 5787 5788 5788 5788 5787 5787 5787 5786 5786 5787 5788 5788 5788 5788 5787 5787 5786 5785 5784 5783 5782 5781 5780 5779 5777 5776 5774 5772 5771 5769 5767 5765 5764 5762 5760 5758 5755 5753 5750 5748
5779 5779 5780 5781 5782 5782 5782 5782 5782 5781 5781 5781 5781 5781 5781 5781 5781 5780 5779 5779 5778 5777 5776 5775 5774 5773 5771 5770 5768 5767 5765 5763 5761 5759 5757 5755 5753 5751 5749 5746 5744 5741 5739
5773 5773 5774 5775 5776 5776 5776 5776 5776 5776 5776 5775 5775 5774 5774 5773 5773 5773 5772 5771 5771 5770 5769 5768 5766 5765 5764 5762 5760 5759 5757 5755 5753 5751 5748 5746 5744 5741 5739 5737 5734 5731 5729
5767 5767 5768 5769 5770 5770 5771 5770 5770 5770 5770 5769 5768 5768 5767 5766 5766 5765 5764 5764 5763 5762 5761 5760 5758 5757 5756 5754 5752 5750 5748 5746 5744 5742 5739 5737 5734 5732 5729 5726 5724 5721 5719
5762 5762 5763 5764 5764 5765 5765 5765 5764 5764 5763 5762 5762 5761 5760 5759 5758 5757 5756 5756 5755 5754 5753 5752 5750 5749 5747 5745 5744 5742 5739 5737 5735 5733 5730 5727 5724 5722 5719 5717 5714 5711 5708
5757 5757 5758 5758 5759 5759 5759 5758 5758 5758 5757 5755 5754 5753 5752 5751 5750 5749 5748 5748 5746 5746 5745 5744 5742 5740 5739 5737 5735 5733 5730 5728 5725 5723 5720 5718 5715 5712 5709 5706 5703 5700 5697
5753 5753 5753 5753 5753 5753 5752 5752 5752 5751 5750 5749 5747 5746 5745 5743 5742 5741 5740 5739 5738 5737 5736 5735 5734 5731 5730 5728 5726 5724 5721 5718 5716 5713 5710 5708 5705 5702 5698 5695 5692 5689 5686
5748 5749 5749 5748 5748 5747 5746 5746 5745 5744 5743 5742 5740 5738 5737 5735 5734 5732 5731 5730 5729 5728 5727 5726 5725 5723 5720 5719 5717 5714 5712 5709 5706 5703 5700 5697 5694 5691 5687 5684 5680 5677 5674
5745 5745 5744 5743 5742 5742 5741 5740 5739 5738 5736 5735 5733 5731 5729 5727 5725 5724 5723 5722 5720 5719 5718 5717 5715 5713 5711 5709 5707 5705 5703 5701 5697 5694 5690 5686 5683 5679 5676 5672 5668 5665 5661
5741 5740 5739 5737 5736 5735 5734 5733 5732 5730 5728 5727 5725 5723 5721 5718 5717 5715 5714 5713 5711 5710 5709 5707 5706 5704 5702 5700 5697 5695 5692 5690 5687 5684 5679 5675 5672 5668 5664 5660 5656 5652 5648
5736 5734 5733 5731 5730 5729 5727 5726 5724 5723 5721 5719 5717 5715 5713 5710 5708 5707 5705 5704 5702 5701 5699 5698 5696 5694 5692 5690 5687 5684 5681 5678 5676 5673 5669 5664 5660 5656 5651 5647 5643 5639 5635
5731 5730 5728 5726 5724 5722 5720 5719 5717 5715 5713 5712 5709 5707 5705 5702 5700 5698 5697 5695 5694 5692 5690 5689 5687 5684 5682 5679 5676 5673 5670 5667 5663 5660 5658 5653 5648 5644 5639 5635 5630 5626 5622
5726 5724 5722 5720 5718 5716 5714 5712 5710 5708 5706 5704 5702 5699 5697 5694 5692 5690 5689 5687 5686 5684 5682 5680 5677 5675 5672 5669 5666 5662 5659 5655 5652 5648 5645 5642 5637 5633 5628 5623 5618 5614 5610